Location: Newark
(49.3000°N, 9.4667°E)
Time: 16:30:06
(UTC+00:00)

Tiros 1 - Pass Details

Date: 29 May 2019
Orbit: 631 x 664 km, 48.4° (Epoch: 16 June)

Event Time Altitude Azimuth Distance (km) Brightness Sun altitude
Rises 14:30:37 0° 277° (W) 2,951 11.2 43.4°
Reaches altitude 10° 14:34:15 10° 249° (WSW) 2,045 10.8 42.8°
Maximum altitude 14:36:12 12° 224° (SW) 1,886 10.5 42.5°
Drops below altitude 10° 14:38:09 10° 200° (SSW) 2,049 10.3 42.2°
Sets 14:41:49 0° 171° (S) 2,963 10.6 41.6°
